Location: Kitt Peak
(31.9639°N, 111.5992°W)
Time: 13:50:23
(UTC-07:00)

SRMSAT - Pass Details

Date: 17 December 2025
Orbit: 846 x 863 km, 20.0° (Epoch: 13 January)

Event Time Altitude Azimuth Distance (km) Brightness Sun altitude
Exits shadow 04:25:35 20° 155° (SSE) 1,840 ? -36.2°
Drops below altitude 10° 04:28:46 10° 123° (ESE) 2,463 ? -35.5°
Sets 04:31:54 0° 108° (ESE) 3,403 ? -34.9°
